Wind_Speed
25 25 26 25 23 20 16 14 14 15 16 18 20 20 20 20 20 18 17 17 16 16 16 16 15 15 15 15 14 13 12 12 12 12 12 12 12 12 12 11 10 9
25 27 28 26 24 21 18 16 14 14 16 18 20 20 18 19 19 18 17 17 16 15 16 16 16 15 15 15 14 13 13 13 12 12 12 12 12 12 11 10 9 9
25 28 27 25 24 21 19 17 15 14 15 19 22 20 18 18 18 17 16 17 16 16 16 16 16 15 15 15 14 14 13 12 12 12 12 12 12 12 11 11 10 9
24 27 25 24 24 22 20 18 16 15 17 19 21 19 17 17 18 17 16 17 17 17 16 16 15 15 15 15 14 14 14 12 12 12 13 12 12 12 12 12 11 10
22 24 23 23 24 23 21 20 17 16 15 15 16 17 17 17 17 17 17 17 18 17 17 17 16 16 16 15 15 15 14 13 13 13 13 13 13 13 13 12 11 10
21 23 22 22 24 24 22 19 16 13 12 12 14 17 17 17 17 17 17 18 17 17 17 17 16 16 17 16 15 15 14 13 13 13 14 13 13 13 13 13 11 10
19 20 19 19 22 23 20 15 13 12 12 13 15 17 18 17 17 18 18 18 18 17 17 17 16 16 16 15 15 15 14 13 13 13 13 12 11 12 12 11 10 10
15 15 15 16 18 19 15 11 13 14 13 15 16 18 19 18 17 18 18 18 18 18 17 17 16 15 15 14 14 14 13 13 13 12 11 11 11 11 11 10 10 11
12 13 14 15 16 17 14 10 13 14 14 17 19 20 19 17 17 17 18 18 19 18 18 17 16 14 14 13 13 13 13 13 12 11 11 11 10 10 10 10 11 11
10 12 13 14 15 14 11 11 13 15 17 19 20 20 19 17 17 17 17 18 19 19 19 17 16 15 13 12 12 12 13 12 11 11 10 10 10 10 11 11 11 11
8 9 10 12 13 11 11 12 13 16 18 19 20 20 19 18 18 18 19 20 20 19 19 18 16 15 13 12 12 12 12 11 10 10 10 10 10 10 10 10 11 10
8 9 9 10 11 10 12 14 14 16 18 19 20 20 19 20 21 20 20 20 18 17 17 17 16 15 14 13 12 12 12 11 10 10 10 10 11 11 11 10 10 9
8 9 10 10 10 10 12 14 16 17 18 20 20 21 21 22 22 20 19 18 16 15 15 16 16 15 15 14 13 13 14 13 11 10 10 11 11 12 11 9 9 9
7 8 8 9 11 11 12 15 17 18 19 20 22 22 22 22 22 21 19 16 14 14 15 15 16 16 17 15 14 15 15 13 11 10 10 11 12 12 11 9 9 9
5 7 8 9 11 12 13 15 17 18 19 21 23 22 21 22 22 20 17 15 15 16 16 16 16 17 17 15 14 16 16 13 11 10 11 12 13 13 12 10 10 11
5 6 8 9 10 12 14 15 17 19 20 21 22 21 21 22 20 18 16 15 15 17 18 18 17 17 16 14 14 16 16 14 12 13 13 13 14 14 13 12 13 13
5 4 7 8 9 11 13 15 17 18 19 21 23 23 22 21 19 17 17 16 16 17 18 18 17 17 16 13 13 15 15 15 15 15 13 12 12 13 14 14 15 15
5 4 6 8 9 11 13 15 16 17 19 21 24 24 23 20 18 17 17 17 18 18 18 18 17 17 15 14 14 15 15 16 17 16 13 11 11 13 15 15 14 14
7 4 6 8 8 10 13 14 15 17 19 21 24 25 23 20 17 15 16 18 20 20 19 18 18 17 15 14 15 15 15 17 18 16 13 12 12 14 15 13 12 11
7 3 3 7 8 10 12 14 15 16 18 20 24 25 23 21 18 16 16 18 19 20 20 19 18 17 15 16 16 14 15 17 18 16 14 13 13 14 13 11 10 9
8 4 1 6 10 11 11 13 16 17 18 19 21 23 22 21 20 17 16 17 17 19 20 20 18 17 16 17 16 15 15 17 18 17 16 15 15 14 13 11 10 8
12 7 3 4 9 11 13 15 16 16 17 18 20 21 20 19 19 17 16 16 16 17 19 19 18 17 17 17 16 15 15 16 18 19 17 16 16 15 13 12 10 9
13 9 5 3 4 7 10 14 15 16 16 17 18 18 19 17 17 17 16 15 16 16 17 17 17 17 17 17 16 15 15 16 18 19 18 17 17 16 14 13 11 10
11 9 7 3 1 2 3 6 11 15 15 16 17 18 18 16 16 16 16 16 16 16 16 16 17 17 17 16 16 16 16 16 18 19 19 19 18 17 15 14 12 11
8 8 7 5 1 4 3 4 6 8 8 12 16 17 17 16 16 15 16 17 17 17 17 18 19 18 18 18 18 18 19 19 20 22 23 22 20 18 17 15 13 11
8 6 6 5 3 4 5 6 7 7 7 8 12 16 18 18 16 16 18 18 18 17 18 20 20 20 20 20 20 20 21 21 22 21 20 20 18 17 16 14 12 11
Wind_Direction
253 256 259 260 263 266 261 256 251 240 235 229 220 212 207 204 202 202 202 202 205 209 210 211 214 217 219 219 219 216 210 207 206 208 207 206 207 206 206 205 201 201
257 260 262 263 265 267 265 261 255 245 239 231 220 213 210 207 204 203 201 201 205 207 206 208 210 211 213 217 218 210 204 205 206 205 205 205 204 202 201 199 196 198
259 264 267 267 266 265 264 263 257 248 241 230 220 212 208 205 202 200 201 203 205 205 205 207 207 207 209 213 214 210 206 205 204 204 204 201 198 196 196 193 192 194
258 264 268 268 266 264 261 261 257 250 241 232 225 218 209 203 200 201 203 204 204 204 205 206 205 203 205 209 211 210 207 203 202 205 206 201 194 194 195 193 193 194
263 267 269 266 263 260 256 253 253 253 249 240 231 223 212 204 201 203 206 206 204 206 207 205 202 200 200 204 208 208 205 202 202 204 206 202 198 198 197 196 197 196
268 274 276 271 266 262 259 255 253 254 251 242 231 220 210 203 202 205 209 209 208 208 208 204 199 196 197 200 204 204 202 202 202 201 201 199 199 201 198 196 198 194
277 280 282 279 272 268 266 260 249 243 236 231 227 218 209 205 205 207 210 211 209 209 207 201 196 192 192 196 199 199 198 199 200 199 198 197 197 199 197 196 195 190
284 276 273 276 276 278 281 263 239 234 227 221 219 215 213 212 211 210 210 208 205 205 201 195 192 190 190 193 195 195 195 197 200 202 202 201 200 199 198 196 191 187
275 272 272 275 279 285 289 263 235 229 222 217 214 214 214 213 211 211 211 206 199 196 195 193 192 191 192 194 193 195 199 201 202 205 207 207 206 202 198 194 189 187
273 276 273 269 273 277 271 248 232 224 219 214 211 211 211 208 207 208 209 203 194 190 192 194 194 193 193 193 193 195 197 197 199 201 203 203 202 199 193 189 190 187
267 268 265 261 264 263 247 233 226 218 214 212 209 208 206 203 204 203 201 199 193 191 195 197 195 196 196 192 190 190 187 187 190 192 193 192 189 187 186 185 185 179
264 260 256 254 253 244 231 224 220 214 211 208 207 206 203 201 202 200 200 200 196 194 199 203 202 201 197 190 188 183 178 176 177 180 183 182 177 176 177 178 177 172
268 260 253 246 236 227 222 216 210 208 208 205 203 202 201 200 199 199 200 198 197 201 206 209 209 202 192 187 184 177 172 169 167 173 178 174 169 169 170 171 175 176
264 256 248 231 217 214 217 213 204 203 207 206 203 201 200 199 197 195 195 194 199 208 211 208 203 194 185 183 182 176 170 166 165 173 180 176 171 169 168 172 179 179
285 252 230 212 207 209 215 214 205 202 205 205 203 201 196 195 196 193 190 195 202 204 204 201 194 188 185 186 185 179 175 172 172 177 180 178 172 169 170 174 175 170
328 268 230 214 213 216 219 217 209 205 204 202 200 198 192 190 193 192 191 198 203 199 196 196 192 190 190 191 189 184 182 183 181 175 172 171 169 170 172 168 163 159
342 294 247 232 225 221 219 216 212 209 205 199 194 193 192 188 188 192 195 203 206 199 195 195 193 192 192 194 193 188 187 188 183 174 168 168 171 173 170 161 156 154
332 281 236 234 231 219 209 206 208 207 202 196 192 190 188 184 186 194 200 204 203 197 195 195 192 191 193 193 189 186 187 186 181 175 170 169 171 170 164 157 155 156
335 289 222 222 221 207 198 196 199 201 198 193 190 187 182 177 181 189 194 198 196 194 194 193 191 193 194 190 184 182 185 184 180 179 177 170 165 162 159 158 160 164
352 336 211 211 210 200 198 194 189 188 189 187 188 189 183 175 177 182 185 190 194 196 196 192 191 195 194 188 187 187 189 187 184 182 179 170 163 161 161 163 166 169
359 345 252 215 213 207 202 196 190 188 186 186 194 198 187 175 179 186 186 186 191 196 197 194 195 198 194 190 192 194 192 190 188 185 181 175 172 170 172 173 173 175
359 347 316 239 221 215 210 201 194 193 192 195 203 202 187 178 184 188 187 186 186 189 192 193 194 193 190 187 188 188 186 185 187 186 183 180 179 178 181 182 182 186
355 350 337 298 232 221 222 211 198 193 200 210 211 194 177 180 189 187 184 186 185 185 187 187 185 184 183 181 182 183 186 189 192 190 186 185 184 184 184 186 187 188
356 349 341 330 198 181 241 236 209 197 204 217 211 187 174 181 191 189 188 187 186 185 185 181 178 176 176 178 181 186 192 197 197 194 190 186 184 184 185 187 188 186
14 359 346 338 250 193 215 246 219 201 210 214 197 179 174 183 190 192 194 192 190 189 185 182 181 178 178 182 185 189 197 202 201 196 190 186 187 190 186 181 180 181
33 24 0 341 301 224 215 217 206 208 231 226 200 187 183 184 189 195 196 193 193 191 186 184 185 182 181 185 189 192 195 196 194 189 183 180 185 188 181 173 178 188
Height
1504 1504 1503 1504 1505 1507 1508 1510 1510 1511 1512 1513 1514 1516 1518 1520 1521 1522 1524 1526 1528 1530 1532 1534 1536 1537 1538 1540 1541 1542 1543 1545 1546 1547 1548 1549 1550 1551 1552 1553 1554 1555
1504 1504 1504 1504 1505 1506 1507 1509 1510 1510 1511 1512 1514 1516 1518 1519 1520 1522 1523 1525 1527 1529 1531 1533 1534 1535 1537 1538 1540 1541 1543 1544 1545 1546 1547 1548 1549 1551 1551 1553 1553 1554
1503 1503 1503 1504 1504 1505 1506 1506 1507 1509 1510 1511 1512 1514 1516 1518 1520 1521 1523 1524 1526 1528 1529 1531 1532 1534 1536 1537 1539 1541 1542 1543 1544 1545 1546 1547 1549 1550 1551 1552 1553 1554
1500 1501 1502 1503 1503 1503 1503 1503 1504 1506 1508 1509 1512 1514 1516 1517 1519 1520 1522 1524 1525 1526 1528 1529 1531 1533 1534 1536 1538 1539 1541 1542 1543 1545 1546 1547 1548 1549 1550 1551 1552 1553
1498 1500 1501 1501 1500 1500 1501 1501 1502 1504 1507 1510 1513 1515 1515 1516 1517 1519 1521 1523 1524 1526 1527 1528 1530 1531 1533 1535 1536 1538 1540 1541 1542 1544 1545 1546 1548 1549 1550 1551 1551 1552
1497 1499 1500 1500 1499 1498 1498 1499 1502 1504 1507 1509 1511 1513 1514 1514 1516 1518 1520 1522 1523 1525 1526 1527 1529 1530 1532 1534 1536 1537 1539 1540 1542 1543 1545 1546 1547 1548 1549 1550 1551 1551
1497 1498 1499 1499 1499 1497 1497 1500 1503 1505 1506 1508 1510 1512 1513 1514 1515 1517 1519 1520 1522 1524 1525 1527 1528 1529 1531 1533 1535 1537 1538 1540 1541 1542 1544 1545 1546 1547 1548 1549 1550 1550
1496 1497 1497 1497 1497 1496 1498 1501 1502 1503 1505 1506 1508 1510 1511 1513 1514 1516 1517 1519 1520 1522 1524 1526 1527 1529 1530 1532 1534 1536 1537 1539 1540 1541 1543 1544 1545 1546 1547 1548 1549 1550
1494 1494 1493 1493 1494 1496 1499 1500 1500 1502 1504 1504 1506 1508 1510 1511 1513 1515 1517 1518 1519 1521 1524 1526 1527 1529 1530 1532 1533 1535 1536 1538 1539 1540 1542 1543 1544 1545 1546 1547 1548 1549
1492 1491 1491 1492 1493 1494 1497 1497 1498 1500 1502 1502 1504 1506 1508 1510 1512 1514 1516 1518 1519 1520 1523 1525 1527 1529 1530 1531 1532 1534 1536 1537 1538 1540 1541 1543 1544 1545 1546 1547 1548 1549
1489 1489 1489 1490 1491 1493 1494 1495 1497 1498 1500 1502 1504 1505 1507 1509 1511 1513 1515 1517 1519 1520 1522 1524 1526 1528 1530 1531 1532 1533 1535 1536 1538 1539 1541 1542 1544 1545 1546 1547 1548 1549
1488 1488 1488 1489 1490 1491 1493 1494 1495 1497 1499 1501 1503 1505 1506 1508 1511 1513 1515 1517 1518 1520 1522 1524 1526 1528 1529 1531 1532 1533 1534 1536 1537 1539 1540 1542 1543 1545 1546 1547 1548 1550
1487 1487 1488 1489 1489 1490 1492 1493 1495 1496 1497 1499 1501 1504 1506 1508 1510 1512 1514 1516 1518 1519 1521 1523 1525 1527 1529 1530 1532 1532 1534 1535 1537 1539 1540 1541 1543 1544 1546 1547 1548 1549
1486 1486 1487 1488 1489 1490 1491 1492 1494 1495 1497 1499 1501 1503 1505 1508 1509 1511 1513 1515 1517 1519 1521 1523 1525 1527 1529 1530 1531 1532 1534 1535 1537 1539 1540 1541 1543 1544 1546 1547 1548 1549
1485 1486 1487 1488 1489 1490 1490 1492 1494 1495 1496 1499 1501 1502 1505 1507 1509 1511 1513 1515 1517 1519 1520 1522 1524 1527 1529 1530 1531 1532 1534 1535 1537 1539 1540 1541 1542 1544 1545 1546 1547 1549
1485 1485 1486 1488 1488 1489 1490 1491 1493 1494 1496 1499 1501 1503 1504 1507 1509 1511 1513 1515 1517 1518 1520 1523 1525 1527 1529 1530 1532 1533 1534 1535 1537 1539 1540 1542 1543 1544 1545 1546 1547 1548
1486 1486 1486 1487 1488 1489 1489 1490 1492 1493 1496 1498 1500 1502 1504 1507 1509 1511 1513 1515 1517 1518 1521 1523 1525 1527 1529 1531 1532 1533 1534 1535 1537 1539 1540 1542 1543 1544 1544 1545 1547 1548
1486 1486 1486 1487 1488 1489 1489 1490 1491 1493 1495 1497 1499 1501 1504 1506 1508 1510 1512 1514 1516 1518 1521 1523 1525 1527 1529 1530 1532 1533 1534 1535 1537 1539 1540 1541 1542 1543 1544 1545 1546 1548
1487 1486 1487 1488 1488 1489 1490 1491 1492 1493 1495 1497 1499 1501 1503 1506 1508 1510 1512 1514 1516 1519 1521 1523 1525 1527 1529 1531 1532 1533 1534 1535 1537 1538 1539 1541 1542 1543 1544 1546 1547 1548
1488 1487 1488 1488 1489 1490 1491 1492 1493 1494 1496 1498 1499 1501 1504 1506 1508 1510 1512 1514 1516 1519 1521 1523 1525 1527 1529 1530 1532 1533 1534 1535 1536 1538 1539 1541 1542 1543 1545 1546 1547 1548
1489 1489 1489 1489 1490 1491 1492 1493 1493 1494 1496 1498 1500 1502 1504 1506 1509 1511 1513 1515 1517 1519 1521 1523 1525 1526 1528 1530 1531 1532 1533 1535 1536 1537 1539 1541 1542 1544 1545 1546 1547 1548
1490 1490 1490 1490 1491 1492 1493 1493 1494 1495 1496 1498 1500 1502 1504 1507 1509 1511 1513 1515 1517 1519 1520 1522 1524 1526 1527 1529 1530 1531 1533 1534 1536 1537 1539 1540 1542 1543 1545 1546 1547 1548
1492 1492 1491 1491 1491 1492 1493 1494 1495 1497 1498 1500 1501 1503 1505 1508 1510 1511 1513 1515 1517 1518 1520 1522 1524 1525 1527 1528 1530 1532 1533 1534 1536 1537 1538 1540 1541 1542 1544 1545 1547 1548
1495 1494 1493 1493 1493 1494 1494 1496 1497 1499 1500 1501 1502 1504 1506 1509 1511 1512 1513 1514 1516 1518 1520 1522 1523 1525 1527 1528 1530 1532 1533 1535 1536 1537 1538 1539 1540 1541 1543 1545 1546 1547
1497 1496 1496 1495 1495 1495 1496 1497 1498 1499 1501 1502 1503 1504 1506 1509 1511 1512 1513 1515 1516 1518 1520 1521 1523 1525 1527 1528 1530 1531 1533 1534 1534 1536 1537 1538 1539 1540 1541 1543 1545 1546
1499 1498 1498 1497 1497 1497 1497 1498 1499 1500 1502 1503 1504 1506 1506 1507 1510 1511 1513 1515 1516 1518 1520 1521 1523 1524 1526 1528 1530 1531 1533 1533 1533 1535 1536 1537 1538 1540 1540 1542 1544 1545